WAT332 SOCA-GVAC

Flight info

Callsign WAT332
Flight time N/A
Altitude 37000
Route 40THR DCT 0650N DCT 09N043W DCT GOGSO/N0460F390 DCT KEPAS
Aircraft CL60/M-SBDE1E2E3FGHIJ1J4J5J7M3RWXYZ/LB1V1D1

Departure

Time N/A
Airport Cayenne – Félix Eboué Airport (SOCA)

Arrival

Time 2026-04-30 00:17
Airport Amílcar Cabral International Airport (GVAC)
Time Latitude Longitude Altitude Speed Heading
2026-04-29 23:54 16.15848 -24.50845 33178 ft 503 kts 55°
2026-04-29 23:55 16.17681 -24.47727 32534 ft 499 kts 55°
2026-04-29 23:55 16.19474 -24.44675 31852 ft 495 kts 54°
2026-04-29 23:55 16.21263 -24.41629 31206 ft 489 kts 54°
2026-04-29 23:55 16.23026 -24.38624 30553 ft 484 kts 54°
2026-04-29 23:56 16.24774 -24.35644 29911 ft 478 kts 54°
2026-04-29 23:56 16.26490 -24.32718 29286 ft 473 kts 54°
2026-04-29 23:56 16.28208 -24.29787 28656 ft 467 kts 54°
2026-04-29 23:56 16.29880 -24.26934 28042 ft 461 kts 54°
2026-04-29 23:57 16.31530 -24.24117 27436 ft 456 kts 54°
2026-04-29 23:57 16.33170 -24.21318 26833 ft 451 kts 54°
2026-04-29 23:57 16.34807 -24.18522 26234 ft 446 kts 54°
2026-04-29 23:57 16.36408 -24.15788 25647 ft 441 kts 54°
2026-04-29 23:58 16.37999 -24.13069 25064 ft 436 kts 55°
2026-04-29 23:58 16.39548 -24.10422 24495 ft 431 kts 55°
2026-04-29 23:58 16.41099 -24.07768 23927 ft 426 kts 55°
2026-04-29 23:58 16.42633 -24.05145 23374 ft 422 kts 55°
2026-04-29 23:59 16.44168 -24.02520 22804 ft 418 kts 56°
2026-04-29 23:59 16.45652 -23.99978 22265 ft 413 kts 56°
2026-04-29 23:59 16.47144 -23.97424 21714 ft 409 kts 56°
2026-04-29 23:59 16.48612 -23.94911 21171 ft 405 kts 56°
2026-04-30 00:00 16.50064 -23.92423 20636 ft 400 kts 56°
2026-04-30 00:00 16.51500 -23.89960 20113 ft 395 kts 56°
2026-04-30 00:00 16.52922 -23.87522 19585 ft 391 kts 56°
2026-04-30 00:00 16.54325 -23.85116 19073 ft 386 kts 56°
2026-04-30 00:01 16.55701 -23.82755 18567 ft 381 kts 56°
2026-04-30 00:01 16.57065 -23.80414 18066 ft 376 kts 56°
2026-04-30 00:01 16.58409 -23.78106 17572 ft 371 kts 57°
2026-04-30 00:01 16.59742 -23.75818 17082 ft 367 kts 57°
2026-04-30 00:02 16.61056 -23.73560 16600 ft 362 kts 57°
2026-04-30 00:02 16.62116 -23.71195 16116 ft 360 kts 72°
2026-04-30 00:02 16.62476 -23.68642 15617 ft 358 kts 90°
2026-04-30 00:02 16.62242 -23.66091 15109 ft 356 kts 97°
2026-04-30 00:03 16.61920 -23.63542 14644 ft 352 kts 97°
2026-04-30 00:03 16.61608 -23.61019 14180 ft 348 kts 97°
2026-04-30 00:03 16.61305 -23.58570 13731 ft 344 kts 97°
2026-04-30 00:03 16.61002 -23.56121 13280 ft 340 kts 97°
2026-04-30 00:04 16.60701 -23.53689 12833 ft 336 kts 97°
2026-04-30 00:04 16.60405 -23.51305 12347 ft 328 kts 97°
2026-04-30 00:04 16.60116 -23.48976 11965 ft 316 kts 97°
2026-04-30 00:04 16.59840 -23.46751 11598 ft 309 kts 98°
2026-04-30 00:05 16.59564 -23.44530 11157 ft 309 kts 98°
2026-04-30 00:05 16.59290 -23.42321 10755 ft 308 kts 98°
2026-04-30 00:05 16.59012 -23.40090 10342 ft 307 kts 99°
2026-04-30 00:05 16.58742 -23.37915 9984 ft 304 kts 99°
2026-04-30 00:06 16.58468 -23.35721 9536 ft 304 kts 99°
2026-04-30 00:06 16.58201 -23.33575 9102 ft 297 kts 99°
2026-04-30 00:06 16.57938 -23.31463 8748 ft 287 kts 99°
2026-04-30 00:06 16.57685 -23.29425 8367 ft 279 kts 99°
2026-04-30 00:07 16.57439 -23.27456 8009 ft 272 kts 99°
2026-04-30 00:07 16.57194 -23.25501 7580 ft 268 kts 99°
2026-04-30 00:07 16.56954 -23.23584 7300 ft 266 kts 99°
2026-04-30 00:07 16.56711 -23.21651 6893 ft 272 kts 99°
2026-04-30 00:08 16.56467 -23.19710 6549 ft 270 kts 98°
2026-04-30 00:08 16.56225 -23.17780 6172 ft 270 kts 98°
2026-04-30 00:08 16.55982 -23.15844 5817 ft 268 kts 98°
2026-04-30 00:08 16.55737 -23.13899 5453 ft 267 kts 98°
2026-04-30 00:09 16.55501 -23.12022 5115 ft 256 kts 97°
2026-04-30 00:09 16.55274 -23.10222 4780 ft 244 kts 97°
2026-04-30 00:09 16.55057 -23.08499 4466 ft 239 kts 96°
2026-04-30 00:09 16.54841 -23.06790 4143 ft 236 kts 96°
2026-04-30 00:10 16.54641 -23.05115 3838 ft 233 kts 93°
2026-04-30 00:10 16.54617 -23.03436 3528 ft 229 kts 87°
2026-04-30 00:10 16.54635 -23.01820 3236 ft 220 kts 87°
2026-04-30 00:10 16.54647 -23.00256 2949 ft 208 kts 87°
2026-04-30 00:11 16.54659 -22.98802 2674 ft 194 kts 87°
2026-04-30 00:11 16.54669 -22.97425 2460 ft 185 kts 87°
2026-04-30 00:11 16.54828 -22.96112 2428 ft 183 kts 67°
2026-04-30 00:11 16.55625 -22.95102 2439 ft 180 kts 32°
2026-04-30 00:12 16.56769 -22.94771 2459 ft 166 kts
2026-04-30 00:12 16.57904 -22.94782 2468 ft 161 kts 360°
2026-04-30 00:12 16.59022 -22.94796 2437 ft 156 kts
2026-04-30 00:12 16.60108 -22.94803 2419 ft 146 kts
2026-04-30 00:13 16.61015 -22.94811 2336 ft 120 kts
2026-04-30 00:13 16.61816 -22.94816 2168 ft 113 kts
2026-04-30 00:13 16.62621 -22.94820 2007 ft 114 kts
2026-04-30 00:13 16.63424 -22.94826 1870 ft 115 kts
2026-04-30 00:14 16.64224 -22.94831 1722 ft 114 kts
2026-04-30 00:14 16.65026 -22.94837 1568 ft 115 kts
2026-04-30 00:14 16.65283 -22.94838 1522 ft 114 kts
2026-04-30 00:14 16.65757 -22.94842 1434 ft 115 kts
2026-04-30 00:15 16.66563 -22.94853 1284 ft 114 kts
2026-04-30 00:15 16.67363 -22.94860 1129 ft 114 kts
2026-04-30 00:15 16.68158 -22.94863 990 ft 114 kts
2026-04-30 00:15 16.68964 -22.94868 850 ft 115 kts
2026-04-30 00:16 16.69767 -22.94872 703 ft 115 kts
2026-04-30 00:16 16.70570 -22.94878 536 ft 115 kts
2026-04-30 00:16 16.71378 -22.94883 359 ft 114 kts
2026-04-30 00:16 16.72169 -22.94888 242 ft 112 kts
2026-04-30 00:17 16.72893 -22.94890 187 ft 95 kts
2026-04-30 00:17 16.73495 -22.94896 193 ft 56 kts 359°
2026-04-30 00:17 16.73821 -22.94897 190 ft 39 kts 358°
2026-04-30 00:17 16.74014 -22.94901 187 ft 20 kts
2026-04-30 00:18 16.74128 -22.94901 185 ft 15 kts
2026-04-30 00:18 16.74227 -22.94872 184 ft 15 kts 49°
2026-04-30 00:18 16.74288 -22.94765 184 ft 18 kts 61°
2026-04-30 00:18 16.74250 -22.94699 184 ft 14 kts 179°
2026-04-30 00:19 16.74136 -22.94698 185 ft 18 kts 179°
2026-04-30 00:19 16.73995 -22.94695 186 ft 21 kts 179°
2026-04-30 00:19 16.73833 -22.94696 188 ft 24 kts 179°
2026-04-30 00:19 16.73684 -22.94687 187 ft 11 kts 157°
2026-04-30 00:20 16.73652 -22.94595 183 ft 7 kts 84°
2026-04-30 00:20 16.73655 -22.94537 180 ft 6 kts 91°
2026-04-30 00:20 16.73641 -22.94532 180 ft 0 kts 255°